YUNHAI-2 01 (43909 NORAD) Tracking and Keplerian Element Data

This shows tracking and keplerian element data for the satellite.

Feedback or suggestion? Click here.




ElementValue
Catalog43909
NameYUNHAI-2 01
Epoch Orbit31991
Epoch Day35.146541
Epoch Year2025
RAAN357.8214
Inclination50.0126
Eccentricity3.41E-05
Argument of Perigee307.6707
Mean Anonmoly52.4177
Mean Motion14.28668307
Decay Rate4.78E-06
L11 43909U 18112A 25035.14654100 .00000478 00000+0 25290-3 0 9993
L22 43909 50.0126 357.8214 0000341 307.6707 52.4177 14.28668307319913



Live tracking and technical data element details for YUNHAI-2 01 (NORAD 43909). YUNHAI-2 01 can be tracked NOW for your location showing map with azimuth and elevation plus other details from your city location.







IsCatalogInMostPopularTable: catalog: 43909, numindb: 527
Update: records affected: 1



GetName: 43909 YUNHAI-2 01

Hit Count: updated at: Sat, 24 May 2025 15:29:10 GMT